Regional Weather Roundup
Issued by NWS

Home | Current Version | Previous Version | Text Only | Print | Product List | Glossary On
Versions: 1 2 3 4 5 6 7 8 9 10 11 12 13 14 15 16 17 18 19 20 21 22 23 24 25 26 27 28 29 30 31 32 33 34 35 36 37 38 39 40 41 42 43 44 45 46 47 48 49 50
000
ASUS45 KREV 061910
RWRNV
NEVADA REGIONAL WEATHER ROUNDUP
NATIONAL WEATHER SERVICE RENO NV
1100 AM PST TUE DEC 06 2016

NOTE: "FAIR" INDICATES FEW OR NO CLOUDS BELOW 12,000 FEET WITH NO
SIGNIFICANT WEATHER AND/OR OBSTRUCTIONS TO VISIBILITY.

NVZ001-003-004-062000-
WESTERN NEVADA

CITY           SKY/WX    TMP DP  RH WIND       PRES   REMARKS
RENO           NOT AVBL
CARSON CITY    FAIR      43  14  31 W15G24    29.89F
MINDEN         FAIR      46  -2  13 W17G29    29.85F
PYRAMID LAKE     N/A     36 N/A N/A S5          N/A
FALLON         NOT AVBL
LOVELOCK       CLOUDY    33  20  58 SW5       29.92S
HAWTHORNE        N/A    N/A N/A N/A MISG        N/A
$$

NVZ002-CAZ072-073-062000-
NORTHERN AND CENTRAL SIERRA

CITY           SKY/WX    TMP DP  RH WIND       PRES   REMARKS
S. LAKE TAHOE  SUNNY     37   1  22 S9G20     29.87F
TRUCKEE        MOSUNNY   34  18  51 W14       29.90S
SQUAW VLY 8000   N/A     21  19  93 SW17        N/A
SUSANVILLE     PTSUNNY   37  21  52 W15G24    29.92F
MAMMOTH LAKES  FAIR      40  -8  13 W30G46    29.89F
BRIDGEPORT       N/A     39  -4  16 SW21G38   29.83F
$$

NVZ030-031-036-062000-
NORTHERN NEVADA

CITY           SKY/WX    TMP DP  RH WIND       PRES   REMARKS
ELKO           NOT AVBL
WINNEMUCCA     NOT AVBL
WENDOVER       CLOUDY    25   9  50 SW3       29.85F
$$

NVZ035-037-062000-
CENTRAL NEVADA

CITY           SKY/WX    TMP DP  RH WIND       PRES   REMARKS
ELY            SUNNY     39   2  21 SW12      29.73F
EUREKA           N/A     30  13  49 N3        29.78F
$$

NVZ013-014-062000-
SOUTH CENTRAL NEVADA

CITY           SKY/WX    TMP DP  RH WIND       PRES   REMARKS
TONOPAH        NOT AVBL
$$

NVZ017-020-022-062000-
SOUTHERN NEVADA

CITY           SKY/WX    TMP DP  RH WIND       PRES   REMARKS
LAS VEGAS      NOT AVBL
N. LAS VEGAS   SUNNY     54  19  25 E3        29.84F
NELLIS AFB     NOT AVBL
HENDERSON      NOT AVBL
MERCURY        SUNNY     53  17  24 W3        29.84F
$$



USA.gov is the U.S. government's official web portal to all federal, state and local government web resources and services.